Location: Unspecified
(0.0000°N, 0.0000°E)
Time: 09:05:03
(UTC+00:00)

Vanguard 1 Rocket - Pass Details

Date: 08 December 2017
Orbit: 656 x 4222 km, 34.3° (Epoch: 15 January)

Event Time Altitude Azimuth Distance (km) Brightness Sun altitude
Rises 14:01:54 0° 226° (SW) 3,087 10.8 51.1°
Reaches altitude 10° 14:03:55 10° 223° (SW) 2,294 10.3 50.7°
Maximum altitude 14:09:00 64° 141° (SE) 1,100 8.6 49.7°
Drops below altitude 10° 14:17:43 10° 60° (ENE) 3,838 10.3 47.9°
Sets 14:22:03 0° 58° (ENE) 5,392 10.9 47.0°
